Location: Cactus School
(34.5700°N, 118.0931°W)
Time: 19:58:28
(UTC-08:00)

N. Korean satellite - Pass Details

Date: 10 November 2017
Orbit: 460 x 514 km, 97.2° (Epoch: 24 November)

Event Time Altitude Azimuth Distance (km) Brightness Sun altitude
Rises 17:20:08 0° 142° (SE) 2,471 9.9 -6.6°
Reaches altitude 10° 17:22:24 10° 129° (SE) 1,602 8.9 -7.0°
Maximum altitude 17:25:14 24° 73° (ENE) 984 7.5 -7.6°
Drops below altitude 10° 17:28:06 10° 17° (NNE) 1,620 8.9 -8.1°
Sets 17:30:24 0° 3° (N) 2,506 10.0 -8.6°
